Location: Ennemain
(49.8469°N, 2.9640°E)
Time: 16:03:14
(UTC+00:00)

Daily predictions for brighter satellites

Satellite Brightness Start Highest point End
(mag) Time Altitude Azimuth Time Altitude Azimuth Time Altitude Azimuth
CZ-4 R/B 1.3 18:10:40 10° SSE 18:14:26 61° ENE 18:18:15 10° N
Cosmos 1733 Rocket 3.0 18:11:30 10° S 18:15:45 62° E 18:20:02 10° NNE
SJ-11-01 4.5 18:11:53 10° SSE 18:16:33 81° WSW 18:21:15 10° NNW
Cosmos 1932 4.5 18:10:24 10° SSW 18:16:38 73° SE 18:22:52 10° NE
ERBS 2.9 18:15:38 10° WSW 18:18:52 53° NNW 18:22:05 10° NE
Cosmos 1975 3.0 18:15:02 10° S 18:18:52 51° E 18:22:46 10° NNE
Feng Yun 1-1 Rocket 4.2 18:14:00 10° SSE 18:19:24 90° WSW 18:24:51 10° NNW
H-2A R/B 2.3 18:16:20 10° NNE 18:20:23 42° E 18:24:20 10° S
HJ-1C 3.4 18:18:04 10° SSE 18:21:17 54° ENE 18:24:30 10° N
Lacrosse 4 Rocket 2.6 18:19:07 10° WSW 18:22:59 43° NW 18:26:54 10° NNE
ARGOS 3.4 18:18:23 10° S 18:23:44 78° WSW 18:29:09 10° NNW
Geosat 4.3 18:19:12 10° NE 18:24:02 44° ESE 18:28:48 10° S
Cosmos 921 Rocket 4.2 18:21:22 10° NNW 18:25:31 45° WSW 18:29:34 10° S
USA 276 2.5 18:26:04 10° SW 18:29:06 46° SSE 18:32:02 11° E
Okean-O 2.7 18:27:35 10° SSE 18:31:55 58° ENE 18:36:18 10° N
Cosmos 1400 Rocket 3.5 18:28:55 10° SSE 18:32:35 33° E 18:36:15 10° NNE
Cosmos 2278 Rocket 3.0 18:27:32 10° SW 18:33:07 56° NW 18:38:43 10° NNE
Cosmos 1943 Rocket 2.6 18:28:00 10° S 18:33:10 41° ESE 18:38:23 10° NE
SJ-6B 4.1 18:30:00 10° ESE 18:33:21 25° ENE 18:36:44 10° N
Cosmos 1354 Rocket 4.5 18:30:46 10° S 18:35:34 38° ESE 18:40:23 10° NE
Cosmos 2074 Rocket 4.1 18:30:08 10° S 18:36:13 58° E 18:42:22 10° NNE
Cosmos 2369 Rocket 3.2 18:33:31 10° SSE 18:37:49 23° ESE 18:42:07 10° NE
Cosmos 1356 Rocket 4.1 18:35:35 10° SSW 18:39:49 61° WNW 18:44:06 10° N
CZ-2C R/B 3.0 18:35:03 10° NNE 18:40:33 77° WNW 18:46:08 10° SSW
BREEZE-M DEB (TANK) 4.0 18:32:23 10° WSW 18:42:15 59° SSE 18:45:09 14° E
Cosmos 1486 Rocket 4.0 18:37:07 10° SSW 18:42:22 81° ESE 18:47:43 10° NNE
Cosmos 2297 3.8 18:37:38 10° S 18:43:08 53° ESE 18:48:42 10° NE
Meteor 1-21 4.4 18:38:35 10° NNW 18:44:17 78° W 18:49:53 10° S
Cosmos 1025 Rocket 4.5 18:41:24 10° NNE 18:44:39 20° ENE 18:46:44 15° ESE
OBJECT-B 1.6 18:42:53 12° SE 18:45:27 31° ENE 18:48:18 10° N
Resurs 01 Rocket 3.4 18:46:34 13° E 18:48:14 15° ENE 18:50:47 10° NNE
Cosmos 1975 Rocket 3.8 18:44:49 10° N 18:48:50 33° ENE 18:52:26 12° SE
CSL-04 Debris 4.1 18:44:37 10° SSE 18:49:59 73° ENE 18:55:23 10° NNW
USA 305 3.6 18:47:32 10° WNW 18:51:37 47° N 18:55:16 13° ENE
USA 186 2.2 18:51:22 16° SE 18:53:17 36° ENE 18:56:09 10° N
COSMOS 2455 3.0 18:49:15 10° NW 18:55:17 77° WSW 19:01:18 10° SSE
Cosmos 1707 3.1 18:52:58 10° NNW 18:56:53 70° W 19:00:45 10° S
Cosmos 1184 Rocket 3.8 18:54:07 10° N 18:56:56 27° ENE 18:58:00 22° ESE
Cosmos 1674 2.6 18:56:45 10° N 19:00:26 59° ENE 19:04:06 10° SSE
ISS -3.8 18:57:10 10° WSW 19:00:33 87° NNW 19:02:48 20° ENE
H-2A R/B 4.5 18:56:40 10° SSW 19:00:41 33° W 19:04:48 10° NNW
Cosmos 773 Rocket 4.0 18:59:04 10° NNW 19:04:20 75° ENE 19:09:31 11° SSE
DMSP B5D2-2 4.1 18:59:38 10° NNE 19:04:58 85° ESE 19:10:16 10° SSW
USA 307 3.6 19:01:15 10° WNW 19:05:23 47° N 19:08:31 16° ENE
Cosmos 1908 Rocket 3.5 19:04:48 10° S 19:09:17 82° E 19:13:47 10° NNE
KORONAS-FOTON 3.6 19:07:36 10° N 19:11:25 82° E 19:15:11 10° SSE
Cosmos 1766 4.4 19:12:33 24° E 19:12:33 24° E 19:15:35 10° NE
SeaSat 1 2.4 19:08:11 14° SE 19:12:31 82° ENE 19:17:29 10° NNW
Cosmos 1656 Rocket 4.3 19:13:03 10° SSE 19:17:53 31° ESE 19:22:41 10° NE
USA 306 3.6 19:15:31 10° WNW 19:19:37 47° N 19:22:04 22° ENE
Cosmos 1346 Rocket 2.7 19:16:16 10° N 19:20:19 74° ENE 19:23:11 18° SSE
USA 281 4.1 19:15:20 10° NE 19:20:30 24° E 19:21:34 23° ESE
Cosmos 2184 Rocket 4.3 19:14:49 10° SSW 19:21:09 74° WNW 19:27:28 10° N
SL-27 R/B 4.2 19:20:17 10° N 19:22:15 17° NE 19:22:15 17° NE
IGS 5A 4.3 19:23:27 29° E 19:24:14 32° ENE 19:27:57 10° N
USA 308 3.6 19:20:37 10° WNW 19:24:45 47° N 19:27:02 24° ENE
Cosmos 1626 2.0 19:21:45 10° N 19:25:27 73° E 19:27:24 26° SSE
Cosmos 1733 3.4 19:24:41 28° SSE 19:26:12 45° E 19:29:51 10° NNE
ATLAS CENTAUR R/B 2.4 19:21:45 10° NW 19:26:15 51° WSW 19:30:02 15° SSE
Cosmos 2327 Rocket 4.5 19:22:34 10° S 19:28:48 85° E 19:35:12 10° N
Cosmos 1295 Rocket 4.4 19:23:37 10° S 19:29:50 83° E 19:36:12 10° N
Ariane Rocket 3.2 19:30:43 29° SE 19:32:58 50° ENE 19:37:53 10° N
CZ-4B R/B 2.4 19:31:27 10° N 19:34:23 43° WNW 19:37:19 10° SW
Cosmos 1610 Rocket 4.5 19:28:14 10° S 19:34:30 86° W 19:40:43 10° N
Cosmos 1238 Rocket 4.2 19:29:29 10° SSW 19:35:50 68° W 19:41:28 10° N
SJ 16-02 1.5 19:31:41 10° S 19:35:54 47° ESE 19:40:10 10° NNE
Okean 2 Rocket 4.1 19:38:55 28° ENE 19:38:55 28° ENE 19:41:47 10° NNE
USA 215 3.9 19:34:11 16° SSE 19:39:15 49° SW 19:45:36 10° WNW
Cosmos 1538 Rocket 4.0 19:33:53 10° NNW 19:39:16 74° ENE 19:41:55 31° SE
CSL-04 Rocket 4.4 19:34:29 10° S 19:39:42 52° W 19:45:01 10° NNW
Cosmos 2154 Rocket 4.2 19:33:42 10° SSW 19:40:03 76° W 19:46:27 10° N
Landsat 7 4.3 19:39:17 36° E 19:40:21 42° ENE 19:44:50 10° N
Sich 1 Rocket 3.8 19:44:12 43° SE 19:45:06 50° E 19:49:29 10° NNE
Meteor 2-20 4.3 19:42:24 10° N 19:48:32 71° ENE 19:51:54 28° SSE
CZ-4 R/B 4.4 19:47:56 10° WSW 19:49:51 13° W 19:51:47 10° WNW
Lacrosse 5 rocket 2.3 19:45:53 10° WNW 19:50:12 43° SW 19:51:42 31° S
SL-8 Rocket 4.0 19:47:14 15° SSE 19:52:26 60° E 19:58:39 10° NNE
SPOT 3 Rocket 3.9 19:52:55 41° E 19:53:45 44° ENE 19:58:38 10° N
Meteor 1-24 Rocket 3.7 19:50:08 10° N 19:55:23 56° ENE 19:56:39 45° ESE
ERBS 4.2 19:52:40 10° WNW 19:55:24 23° N 19:56:15 21° NNE
H-2A R/B 4.5 19:52:44 10° N 19:56:08 24° WNW 19:59:28 10° WSW
Meteor 2-10 4.4 19:55:23 42° ESE 19:56:21 47° E 20:01:38 10° NNE
Cosmos 2297 Rocket 3.8 19:52:59 10° N 19:57:02 19° NE 19:58:26 18° NE
Cosmos 1339 Rocket 4.4 19:52:07 10° N 19:58:24 85° E 20:01:58 27° SSE
Cosmos 1315 Rocket 2.7 19:58:58 45° S 20:00:07 90° ESE 20:04:11 10° NNE
Cosmos 1782 Rocket 4.2 19:56:10 10° SSW 20:00:32 56° WNW 20:04:55 10° N
MOS 1 4.2 19:57:42 28° SSE 20:00:50 86° WSW 20:06:34 10° NNW
IRS-1A Rocket 4.3 19:58:33 29° SSE 20:01:43 89° W 20:07:40 10° NNW
Lacrosse 4 Rocket 4.4 20:01:25 10° NW 20:02:43 11° NNW 20:04:01 10° N
Cosmos 1727 Rocket 4.2 19:58:08 10° N 20:04:19 51° ENE 20:05:38 44° ESE
APEX 3.4 19:59:42 10° NNW 20:04:52 81° ENE 20:05:18 71° ESE
USA 276 3.2 20:02:01 10° W 20:04:15 42° W 20:04:15 42° W
Cosmos 1441 Rocket 3.3 20:02:49 10° N 20:06:08 64° NNE 20:06:08 64° NNE
SJ-6B 4.2 20:05:04 17° SSW 20:07:50 38° W 20:11:42 10° NNW
Cosmos 1536 Rocket 3.7 20:03:41 10° N 20:07:47 58° ENE 20:07:47 58° ENE
Helios 1A Rocket 3.4 20:08:36 40° SSW 20:09:46 56° WSW 20:13:49 10° NNW
Cosmos 1833 4.2 20:04:47 10° NNW 20:10:27 79° WSW 20:12:13 45° SSE
Cosmos 2151 Rocket 4.4 20:12:45 38° NE 20:12:45 38° NE 20:15:45 10° NNE
Cosmos 158 Rocket 3.9 20:06:36 10° NNW 20:11:41 74° WSW 20:12:55 50° S
Iridium 4 Rocket 4.5 20:07:55 10° NNE 20:10:20 25° NE 20:10:20 25° NE
SL-14 R/B 3.8 20:09:17 10° NNW 20:13:13 56° W 20:13:51 49° SW
EO 1 Delta rocket 4.2 20:11:21 35° S 20:13:23 71° W 20:18:51 10° NNW
Cosmos 1777 Rocket 4.3 20:09:37 10° SSW 20:14:50 67° WNW 20:20:04 10° NNE
Meteor 2-20 Rocket 4.3 20:09:01 10° N 20:15:12 81° E 20:17:11 46° SSE
Cosmos 1943 Rocket 3.4 20:11:40 10° WSW 20:16:56 41° NW 20:22:15 10° NNE
OBJECT-B 3.5 20:15:47 12° SW 20:17:37 17° W 20:19:49 10° NW
Cosmos 2227 Rocket 3.8 20:14:53 10° N 20:19:05 21° NE 20:19:56 20° NE
Cosmos 923 Rocket 3.8 20:15:52 10° NNW 20:21:06 75° ENE 20:21:26 72° ESE
Cosmos 2369 Rocket 2.4 20:15:41 10° SW 20:21:20 69° WNW 20:26:59 10° NNE
Cosmos 1025 Rocket 3.8 20:18:20 10° NNW 20:22:33 49° W 20:23:38 39° SW
Resurs 01 Rocket 1.6 20:24:08 80° WSW 20:24:09 80° WSW 20:28:36 10° NNW
Meteor 1-15 Rocket 4.4 20:20:11 10° SSW 20:25:42 69° WNW 20:31:20 10° N
Cosmos 2341 Rocket 4.3 20:20:49 10° SSW 20:27:06 68° WNW 20:33:29 10° N
Spot 2 Rocket 4.1 20:28:30 43° NE 20:28:30 43° NE 20:32:38 10° N
SPOT 1/Viking Rocket 3.4 20:30:21 76° ENE 20:30:24 76° ENE 20:35:35 10° NNW
USA 305 3.4 20:27:43 10° WNW 20:31:17 55° NNW 20:31:17 55° NNW
NOSS 3-3 (A) 4.4 20:25:15 10° NW 20:32:39 85° NE 20:34:58 52° SE
NOSS 3-3 (C) 4.4 20:25:20 10° NW 20:32:45 84° NE 20:35:03 52° SE
Cosmos 2366 rocket 3.9 20:31:38 35° SSW 20:34:24 86° W 20:40:36 10° N
ARIANE 5 R/B 4.1 20:36:51 27° NNE 20:36:51 27° NNE 20:39:17 10° N
Cosmos 1680 Rocket 3.4 20:29:57 10° NNW 20:35:04 74° NE 20:35:04 74° NE
SPOT 5 3.9 20:36:25 40° NE 20:36:25 40° NE 20:40:37 10° N
ISS -1.5 20:34:12 10° WNW 20:35:48 25° WNW 20:35:48 25° WNW
Cosmos 1300 Rocket 4.4 20:37:51 38° WSW 20:38:58 48° WNW 20:43:13 10° N
Cosmos 1241 Rocket 4.3 20:33:32 10° NW 20:39:52 86° SW 20:40:35 72° SSE
Meteor 2-5 Rocket 4.2 20:34:38 10° NNW 20:40:03 56° W 20:41:42 41° SSW
Cosmos 2218 Rocket 4.0 20:38:15 32° SSW 20:41:19 76° WNW 20:47:33 10° N
Meteor 1-22 Rocket 4.2 20:43:07 57° SSW 20:44:18 79° WNW 20:50:08 10° N
USA 307 3.9 20:41:28 10° WNW 20:44:34 45° NW 20:44:34 45° NW
MetOp-B 4.1 20:49:13 74° WSW 20:49:20 74° WSW 20:54:43 10° NNW
Cosmos 2219 4.4 20:45:24 10° NNW 20:50:02 29° NE 20:50:02 29° NE
Cosmos 2112 Rocket 4.2 20:47:45 10° NNW 20:52:24 70° NNW 20:52:24 70° NNW
Terra 3.3 20:58:41 29° NNE 20:58:41 29° NNE 21:01:20 10° N
ERS-1 Rocket 3.8 20:59:18 42° NNE 20:59:18 42° NNE 21:02:50 10° N
USA 306 4.4 20:55:36 10° WNW 20:58:06 34° WNW 20:58:06 34° WNW
Cosmos 1656 Rocket 4.4 20:55:51 10° SW 21:01:15 50° NW 21:06:38 10° NNE
USA 281 3.2 20:59:03 10° NNE 21:05:39 81° WNW 21:08:21 39° SW
Cosmos 1867 4.3 21:01:07 10° NW 21:05:41 46° NNE 21:05:41 46° NNE
SJ 16-02 3.5 21:11:04 10° WSW 21:14:42 24° NW 21:18:22 10° N
Cosmos 1821 Rocket 4.2 21:31:30 68° NW 21:31:30 68° NW 21:37:20 10° N
CENTAUR R/B 3.7 21:45:13 35° NE 21:45:13 35° NE 21:49:19 10° NE
Cosmos 2297 Rocket 3.2 21:36:25 10° NNW 21:40:14 43° NNW 21:40:14 43° NNW
Cosmos 2227 Rocket 3.5 21:58:22 10° NNW 22:01:45 37° NNW 22:01:45 37° NNW
Cosmos 2263 Rocket 4.0 22:18:54 10° NNW 22:21:55 24° NNE 22:21:55 24° NNE
Terra 4.4 22:37:34 16° NW 22:37:34 16° NW 22:38:49 10° NW
CENTAUR R/B 4.0 23:32:20 32° NW 23:33:45 35° NNW 23:40:44 10° NE
Cosmos 1980 Rocket 4.4 23:45:06 20° NNE 23:45:06 20° NNE 23:46:46 10° NNE
SL-16 R/B 4.3 23:50:55 24° NE 23:50:55 24° NE 23:55:33 10° N
